Date String (YYYY-MM-DD hh:mm:ss) UTC,Instrument flags,Ambient pressure (hPa),Sample flow (lpm),Bypass flow (lpm),Sample temperature (°C),Ambient temperature (°C),ASC tube jacket temperature (°C),LED temperature (°C),Box temperature (°C),Sample RH (%),Span deviation,Mass concentration (μg/m³),Mass concentration (μg/m³),Mass concentration (μg/m³)
DateTimeUTC,F1_M11,P_M11,Q1_M11,Q2_M11,T1_M11,T2_M11,T3_M11,T4_M11,T5_M11,U1_M11,ZSPAN_M11,X0_M11,X2_M11,X1_M11
2022-09-14 22:00:00,,0822.3,5.01,0.00,29.8,28.1,00.0,38.5,31.6,23.6,0000.0,0011.54,0004.53,0003.94
2022-09-14 22:01:00,,0822.3,5.00,0.00,29.8,28.3,00.0,38.5,31.7,23.6,0000.0,0010.78,0004.40,0003.84
2022-09-14 22:02:00,,0822.2,5.00,0.00,29.8,28.4,00.0,38.5,31.7,23.8,0000.0,0010.42,0004.30,0003.75
2022-09-14 22:03:00,,0822.3,5.00,0.00,29.8,28.5,00.0,38.5,31.7,23.7,0000.0,0010.22,0004.19,0003.65
2022-09-14 22:04:00,,0822.4,5.02,0.00,29.9,28.6,00.0,38.5,31.8,23.8,0000.0,0009.98,0004.08,0003.57
2022-09-14 22:05:00,,0822.4,4.99,0.00,29.9,28.7,00.0,38.5,31.8,23.9,0000.0,0009.80,0003.96,0003.49
2022-09-14 22:06:00,,0822.4,5.01,0.00,29.9,28.8,00.0,38.6,31.9,23.9,0000.0,0010.08,0003.82,0003.41
2022-09-14 22:07:00,,0822.4,5.00,0.00,30.0,28.9,00.0,38.6,31.9,23.9,0000.0,0009.35,0003.68,0003.35
2022-09-14 22:08:00,,0822.4,5.00,0.00,30.0,28.5,00.0,38.6,31.9,23.9,0000.0,0008.91,0003.60,0003.29
2022-09-14 22:09:00,,0822.5,5.01,0.00,30.0,27.0,00.0,38.6,31.8,23.9,0000.0,0009.55,0003.63,0003.30
2022-09-14 22:10:00,,0822.4,5.00,0.00,29.9,26.3,00.0,38.5,31.7,23.7,0000.0,0009.58,0003.77,0003.40
2022-09-14 22:11:00,,0822.5,5.01,0.00,29.8,26.3,00.0,38.5,31.5,24.0,0000.0,0010.15,0003.94,0003.52
2022-09-14 22:12:00,,0822.5,4.99,0.00,29.7,26.7,00.0,38.5,31.3,24.3,0000.0,0010.99,0004.12,0003.63
2022-09-14 22:13:00,,0822.5,5.00,0.00,29.7,27.1,00.0,38.4,31.4,24.8,0000.0,0011.51,0004.29,0003.76
2022-09-14 22:14:00,,0822.6,5.00,0.00,29.7,27.4,00.0,38.4,31.4,25.3,0000.0,0011.93,0004.44,0003.88
2022-09-14 22:15:00,,0822.6,5.00,0.00,29.7,27.7,00.0,38.4,31.4,25.5,0000.0,0012.18,0004.59,0003.98
2022-09-14 22:16:00,,0822.6,5.01,0.00,29.7,27.9,00.0,38.4,31.5,25.8,0000.0,0012.80,0004.75,0004.10
2022-09-14 22:17:00,,0822.6,4.99,0.00,29.7,28.0,00.0,38.4,31.5,26.4,0000.0,0012.69,0004.94,0004.21
2022-09-14 22:18:00,,0822.6,5.01,0.00,29.7,28.2,00.0,38.4,31.5,26.4,0000.0,0013.02,0005.16,0004.31
2022-09-14 22:19:00,,0822.6,4.99,0.00,29.7,28.3,00.0,38.4,31.6,25.3,0000.0,0013.19,0005.27,0004.38
2022-09-14 22:20:00,,0822.7,5.01,0.00,29.7,28.4,00.0,38.4,31.6,25.2,0000.0,0013.23,0005.27,0004.40
2022-09-14 22:21:00,,0822.7,4.99,0.00,29.8,28.5,00.0,38.4,31.7,25.1,0000.0,0013.37,0005.20,0004.36
2022-09-14 22:22:00,,0822.8,5.01,0.00,29.8,28.6,00.0,38.5,31.7,24.7,0000.0,0012.95,0005.16,0004.31
2022-09-14 22:23:00,,0822.8,4.99,0.00,29.8,28.6,00.0,38.5,31.8,24.8,0000.0,0012.27,0005.09,0004.28
2022-09-14 22:24:00,,0822.8,5.00,0.00,29.9,28.7,00.0,38.5,31.8,25.7,0000.0,0011.77,0005.01,0004.22
2022-09-14 22:25:00,,0822.8,5.01,0.00,29.9,28.8,00.0,38.5,31.8,26.2,0000.0,0011.44,0004.94,0004.16
2022-09-14 22:26:00,,0822.8,4.99,0.00,29.9,28.8,00.0,38.6,31.9,26.4,0000.0,0011.23,0004.89,0004.10
2022-09-14 22:27:00,,0822.9,5.02,0.00,29.9,28.8,00.0,38.6,31.9,25.9,0000.0,0010.71,0004.79,0004.02
2022-09-14 22:28:00,,0823.0,5.00,0.00,30.0,28.6,00.0,38.6,31.9,26.1,0000.0,0010.54,0004.67,0003.94
2022-09-14 22:29:00,,0823.0,5.01,0.00,30.0,27.4,00.0,38.6,31.8,27.2,0000.0,0009.91,0004.51,0003.86
2022-09-14 22:30:00,,0822.9,5.00,0.00,29.9,26.7,00.0,38.6,31.8,27.7,0000.0,0009.45,0004.43,0003.81
2022-09-14 22:31:00,,0822.9,4.99,0.00,29.9,26.8,00.0,38.5,31.7,28.1,0000.0,0008.60,0004.42,0003.79
2022-09-14 22:32:00,,0823.0,5.00,0.00,29.8,27.1,00.0,38.5,31.5,28.5,0000.0,0008.26,0004.47,0003.81
2022-09-14 22:33:00,,0822.9,5.01,0.00,29.8,27.4,00.0,38.5,31.5,29.1,0000.0,0008.22,0004.46,0003.84
2022-09-14 22:34:00,,0823.0,5.00,0.00,29.8,27.6,00.0,38.5,31.5,29.5,0000.0,0008.33,0004.51,0003.87
2022-09-14 22:35:00,,0823.0,5.00,0.00,29.7,27.8,00.0,38.5,31.5,29.9,0000.0,0008.55,0004.57,0003.92
2022-09-14 22:36:00,,0823.0,4.99,0.00,29.7,28.0,00.0,38.5,31.5,30.1,0000.0,0008.72,0004.67,0003.98
2022-09-14 22:37:00,,0823.0,5.01,0.00,29.8,28.1,00.0,38.5,31.6,30.3,0000.0,0008.57,0004.74,0004.04
2022-09-14 22:38:00,,0823.0,5.01,0.00,29.8,28.3,00.0,38.5,31.6,29.7,0000.0,0008.96,0004.86,0004.12
2022-09-14 22:39:00,,0823.0,4.99,0.00,29.8,28.3,00.0,38.5,31.6,28.8,0000.0,0008.78,0004.94,0004.18
2022-09-14 22:40:00,,0823.1,5.01,0.00,29.8,28.4,00.0,38.5,31.7,28.6,0000.0,0008.83,0004.97,0004.22
2022-09-14 22:41:00,,0823.1,4.99,0.00,29.8,28.4,00.0,38.5,31.7,28.7,0000.0,0008.86,0005.00,0004.26
2022-09-14 22:42:00,,0823.1,5.02,0.00,29.8,28.5,00.0,38.5,31.7,28.1,-000.1,0008.95,0005.05,0004.30
2022-09-14 22:43:00,,0823.1,4.99,0.00,29.8,28.5,00.0,38.5,31.8,28.2,0000.0,0009.01,0005.07,0004.33
2022-09-14 22:44:00,,0823.1,5.01,0.00,29.9,28.6,00.0,38.6,31.7,28.8,0000.0,0009.01,0005.09,0004.36
2022-09-14 22:45:00,,0823.1,4.99,0.00,29.9,28.6,00.0,38.6,31.8,28.6,0000.0,0008.92,0005.06,0004.33
2022-09-14 22:46:00,,0823.1,5.00,0.00,29.9,28.6,00.0,38.6,31.8,28.1,0000.0,0008.62,0004.96,0004.26
2022-09-14 22:47:00,,0823.1,5.01,0.00,29.9,28.7,00.0,38.6,31.8,29.0,0000.0,0008.40,0004.84,0004.19
2022-09-14 22:48:00,,0823.1,4.99,0.00,30.0,28.7,00.0,38.6,31.8,28.7,0000.0,0008.20,0004.76,0004.13
2022-09-14 22:49:00,,0823.1,5.01,0.00,30.0,28.3,00.0,38.7,31.9,29.5,0000.0,0007.77,0004.66,0004.07
2022-09-14 22:50:00,,0823.0,4.99,0.00,29.9,27.0,00.0,38.6,31.7,29.3,0000.0,0007.60,0004.56,0004.01
2022-09-14 22:51:00,,0823.1,4.99,0.00,29.9,26.6,00.0,38.6,31.7,27.5,0000.0,0007.43,0004.46,0003.92
2022-09-14 22:52:00,,0823.0,5.00,0.00,29.8,26.7,00.0,38.5,31.5,27.9,0000.0,0007.27,0004.37,0003.85
2022-09-14 22:53:00,,0823.0,5.00,0.00,29.8,27.0,00.0,38.5,31.4,28.4,0000.0,0007.08,0004.29,0003.77
2022-09-14 22:54:00,,0823.0,5.00,0.00,29.7,27.3,00.0,38.5,31.4,28.2,0000.0,0006.68,0004.16,0003.68
2022-09-14 22:55:00,,0822.9,4.99,0.00,29.7,27.5,00.0,38.5,31.4,27.9,0000.0,0006.50,0004.04,0003.57
2022-09-14 22:56:00,,0822.9,4.99,0.00,29.7,27.7,00.0,38.5,31.5,28.0,0000.0,0006.70,0003.94,0003.50
2022-09-14 22:57:00,,0822.9,5.02,0.00,29.7,27.9,00.0,38.5,31.5,27.7,0000.0,0006.76,0003.90,0003.47
2022-09-14 22:58:00,,0822.9,5.00,0.00,29.7,28.0,00.0,38.5,31.5,27.9,0000.0,0006.65,0003.83,0003.41
2022-09-14 22:59:00,,0822.9,4.99,0.00,29.7,28.1,00.0,38.5,31.5,27.8,0000.0,0006.51,0003.75,0003.34
